Regional Weather Roundup
Issued by NWS Cleveland, OH

Home | Current Version | Previous Version | Graphics & Text | Print | Product List | Glossary On
Versions: 1 2 3 4 5 6 7 8 9 10 11 12 13 14 15 16 17 18 19 20 21 22 23 24 25 26 27 28 29 30 31 32 33 34 35 36 37 38 39 40 41 42 43 44 45 46 47 48 49 50
000
ASUS41 KCLE 021910
RWRCLE
OHIO REGIONAL WEATHER ROUNDUP
NATIONAL WEATHER SERVICE WILMINGTON, OH
200 PM EST MON MAR 02 2015

NOTE: "FAIR" INDICATES FEW OR NO CLOUDS BELOW 12,000 FEET WITH NO
SIGNIFICANT WEATHER AND/OR OBSTRUCTIONS TO VISIBILITY.

OHZ001>008-015>018-024>027-034-035-043-044-022000-
   NORTHWEST OHIO

CITY           SKY/WX    TMP DP  RH WIND       PRES   REMARKS
DEFIANCE       SUNNY     29  15  56 VRB6      30.49F WCI  23
FINDLAY        SUNNY     24  16  71 W9        30.47F WCI  14
TOLEDO EXPRESS SUNNY     26  15  63 W14       30.47F WCI  14
TOLEDO EXEC    SUNNY     26  16  65 SW13      30.48F WCI  15
LIMA           SUNNY     26  15  63 SW7       30.47F WCI  18
$$

OHZ009>014-019>023-028>033-038-089-022000-
   NORTHEAST OHIO

CITY           SKY/WX    TMP DP  RH WIND       PRES   REMARKS
CLE-HOPKINS    MOSUNNY   28  11  48 W12       30.47F WCI  18
CLE-LAKEFRONT  SUNNY     25  16  68 W15       30.45F WCI  13
CUY CO. ARPT   MOSUNNY   28  18  64 W14       30.45F WCI  17
LORAIN-ELYRIA  SUNNY     25  13  60 W13       30.46F WCI  14
ASHTABULA      SUNNY     25   9  50 NW12      30.41F WCI  14
AKRON-CANTON   PTSUNNY   27  13  55 W10       30.41F WCI  17
WOOSTER        SUNNY     25  12  58 W12       30.44F WCI  14
MANSFIELD      SUNNY     25  11  55 W9        30.44F WCI  15
YOUNGSTOWN     MOSUNNY   28  11  48 NW9G18    30.38F WCI  19
$$

OHZ042-051>053-060>062-070>072-077>081-022000-
  SOUTHWEST OHIO

CITY           SKY/WX    TMP DP  RH WIND       PRES   REMARKS
CINC-COVINGTON PTSUNNY   32  15  49 CALM      30.46F
CINC-LUNKEN    SUNNY     32  14  47 NE5       30.50F WCI  27
HAMILTON       SUNNY     32  15  49 N3        30.50F
DAYTON         PTSUNNY   29  13  51 NE5       30.49F WCI  24
WRIGHT-PAT AFB SUNNY     29  13  52 NE6       30.48F WCI  23
DAYTON GENERAL SUNNY     30  14  51 CALM      30.46F
WILMINGTON     SUNNY     26  13  57 NE9       30.46F WCI  17
$$

OHZ036-037-039>041-045>050-054>059-063>069-073>076-082>088-022000-
  CENTRAL AND SOUTHEAST OHIO

CITY           SKY/WX    TMP DP  RH WIND       PRES   REMARKS
COLUMBUS       PTSUNNY   30  13  49 VRB5      30.48F WCI  25
OSU AIRPORT    SUNNY     27  14  58 W6        30.47F WCI  20
BOLTON FIELD   SUNNY     28  14  54 CALM      30.49F
RICKENBACK AFB SUNNY     28  16  60 SW5       30.48F WCI  23
NEWARK         SUNNY     30  13  49 NW8       30.46F WCI  22
MARION         SUNNY     26  13  57 N6        30.47F WCI  19
LANCASTER      MOSUNNY   27  16  63 W8        30.48F WCI  19
ZANESVILLE     SUNNY     30  13  49 W7        30.45F WCI  23
NEW PHILLY     SUNNY     30  13  49 NW7       30.45F WCI  23
$$



USA.gov is the U.S. government's official web portal to all federal, state and local government web resources and services.